Regional Weather Roundup
Issued by NWS

Home | Current Version | Previous Version | Text Only | Print | Product List | Glossary Off
Versions: 1 2 3 4 5 6 7 8 9 10 11 12 13 14 15 16 17 18 19 20 21 22 23 24 25 26 27 28 29 30 31 32 33 34 35 36 37 38 39 40 41 42 43 44 45 46 47 48 49 50

000
ASUS45 KBOU 252007
RWRCO

WEATHER ROUNDUP FOR COLORADO
NATIONAL WEATHER SERVICE DENVER/BOULDER CO
200 PM MDT SAT APR 25 2015

NOTE: "FAIR" INDICATES FEW OR NO CLOUDS BELOW 12000 FEET WITH NO
SIGNIFICANT WEATHER AND/OR OBSTRUCTIONS TO VISIBILITY.

COZ001>005-013-030-031-252100-
...NORTHWEST COLORADO...

CITY           SKY/WX    TMP DP  RH WIND       PRES   REMARKS
CRAIG          MOSUNNY   50  36  58 VRB6      29.83F
HAYDEN         PTSUNNY   46  34  61 N6        29.84F
MEEKER         SUNNY     49  34  56 S6        29.83F
MOUNT WERNER   NOT AVBL
STEAMBOAT SPGS PTSUNNY   43  35  72 NE3       29.85F
WALDEN         CLOUDY    46  27  46 SW6       29.85R
$$

COZ006>008-011-252100-
...WEST CENTRAL VALLEYS...

CITY           SKY/WX    TMP DP  RH WIND       PRES   REMARKS
GRAND JUNCTION MOSUNNY   56  41  57 VRB5      29.80F
MONTROSE       PTSUNNY   50  41  71 N16       29.85F
EAGLE          PTSUNNY   52  36  54 SW14      29.86F
RIFLE          CLOUDY    49  39  68 CALM      29.85F
DELTA          PTSUNNY   54  43  67 MISG      29.84F THUNDER
NUCLA          PTSUNNY   50  43  76 E6        29.86F
$$

COZ017>023-064>068-252100-
...SOUTHWEST COLORADO...

CITY           SKY/WX    TMP DP  RH WIND       PRES   REMARKS
DURANGO        CLOUDY    53  30  41 SW22      29.88F
CORTEZ         PTSUNNY   54  40  59 E5        29.87F
PAGOSA SPRINGS CLOUDY    50  35  57 E7        29.92F
TELLURIDE      CLOUDY    45  28  51 SE14G26   29.91F THUNDER
WOLF CREEK PAS NOT AVBL
$$

COZ009-010-012-014-032>034-037-058>063-252100-
...CENTRAL COLORADO...

CITY           SKY/WX    TMP DP  RH WIND       PRES   REMARKS
ASPEN          PTSUNNY   46  33  60 NW12G17   29.85F
BUENA VISTA    PTSUNNY   55  22  27 W12G23    29.83F
COPPER MTN     CLOUDY    34  27  75 SW8       29.98R WCI  27
BERTHOUD PASS  PTSUNNY   28  21  74 SW15      30.00S WCI  17
COTTONWOOD PAS PTSUNNY   50  19  29 W5        29.91S
GUNNISON       MOSUNNY   48  28  46 W8        29.89F
KREMMLING      CLOUDY    43  30  61 N12G21    29.86S
LEADVILLE      CLOUDY    40  22  48 W9        29.88S
MONARCH PASS   CLOUDY    34  21  60 W21G26    30.08S WCI  22
SALIDA         PTSUNNY   58  26  28 S15G23    29.88F
SUNLIGHT       TSTM      32  32 100 CALM      29.97S VSB 3/4
WILKERSON PASS PTSUNNY   43  21  42 SW10G17   29.96F
$$

COZ069>075-252100-
...SAN LUIS VALLEY/SANGRE DE CRISTO MOUNTAINS...

CITY           SKY/WX    TMP DP  RH WIND       PRES   REMARKS
ALAMOSA        CLOUDY    55  22  27 S8        29.84F
LA VETA PASS   MOSUNNY   46  23  39 SW6G17    29.93F
SAGUACHE       RAIN      46  34  61 NW12G17   29.88R
$$

COZ035-036-038>040-252100-
...NORTHERN COLORADO FRONT RANGE...

CITY           SKY/WX    TMP DP  RH WIND       PRES   REMARKS
DENVER INTL AP CLOUDY    66  30  26 NE15G23   29.69F
DMNS CITY PARK   N/A     66  26  22 NE12      29.67F
AURORA         PTSUNNY   66  23  19 SE13      29.69F
FRONT RANGE AP PTSUNNY   68  28  22 SE16      29.74R
ERIE MUNI ARPT CLOUDY    67  27  22 NE9       29.69F
BOULDER MUN AP CLOUDY    64  28  25 SE6       29.70S
CENTENNIAL     CLOUDY    62  26  25 S16       29.70F
BROOMFIELD     PTSUNNY   66  25  20 NW3       29.71F
FORT COLLINS   PTSUNNY   66  34  30 CALM      29.72S
LONGMONT       LGT RAIN  62  33  32 NW21G32   29.73R
$$

COZ041-046-047-076>085-087-088-252100-
...PIKES PEAK/PALMER DIVIDE AND SOUTHERN FOOTHILLS...

CITY           SKY/WX    TMP DP  RH WIND       PRES   REMARKS
COLO. SPRINGS  PTSUNNY   65  21  18 E13       29.73F
A. F. ACADEMY  PTSUNNY   62  20  19 SW22G36   29.74F
ELLICOTT       PTSUNNY  N/A N/A N/A SW7       29.74F
FALCON         PTSUNNY   63  20  18 SE9       29.78S
FORT CARSON    NOT AVBL
LIMON          PTSUNNY   65  28  24 E13       29.73F
MONUMENT HILL  CLOUDY    63  23  22 SE13      29.76S
TRINIDAD       MOSUNNY   70  23  17 E10       29.72F
$$

COZ042>045-048>051-090-091-252100-
...NORTHEAST COLORADO...

CITY           SKY/WX    TMP DP  RH WIND       PRES   REMARKS
GREELEY ARPT   PTSUNNY   70  34  26 SE15      29.71F
AKRON          MOSUNNY   66  31  27 W3        29.72S
BURLINGTON     SUNNY     70  39  32 NE7G17    29.73S
WRAY           MOSUNNY   71  41  34 NE6       29.71R
STERLING       MOSUNNY   70  41  35 NE8       29.68F
HOLYOKE        SUNNY     70  45  40 E12       29.71S
FORT MORGAN    MOSUNNY   69  31  24 E8        29.71F
$$

COZ086-089-092>099-252100-
...SOUTHEAST COLORADO...

CITY           SKY/WX    TMP DP  RH WIND       PRES   REMARKS
PUEBLO         MOSUNNY   72  20  14 S9        29.67F
LA JUNTA       SUNNY     75  23  14 VRB6      29.68F
LAMAR          SUNNY     74  27  17 W6        29.67F
SPRINGFIELD      N/A     70  27  20 SE9       29.71F
$$


USA.gov is the U.S. government's official web portal to all federal, state and local government web resources and services.